Location: Unspecified
(55.7024°N, 37.6611°E)
Time: 09:44:21
(UTC+03:00)

Explorer 7 - Visible Passes

Search period start: 17 February 2026 00:00
Search period end: 27 February 2026 00:00
Orbit: 431 x 545 km, 50.2° (Epoch: 16 February)

Date Brightness Start Highest point End Pass type
(mag) Time Alt. Az. Time Alt. Az. Time Alt. Az.
17 Feb 7.7 18:23:43 10° WSW 18:27:07 36° S 18:30:39 10° ESE visible
17 Feb 8.0 20:01:48 10° WSW 20:05:04 28° SSW 20:05:28 27° S visible
18 Feb 8.1 19:36:09 10° WSW 19:39:23 28° SSW 19:40:59 21° SSE visible
19 Feb 8.1 19:10:27 10° WSW 19:13:42 28° SSW 19:16:32 13° SE visible
19 Feb 9.3 20:49:43 10° WSW 20:50:54 12° SW 20:50:54 12° SW visible
20 Feb 8.2 18:44:44 10° WSW 18:47:57 28° SSW 18:51:18 10° SE visible
20 Feb 9.2 20:23:56 10° WSW 20:25:36 13° SW 20:26:30 12° SSW visible
21 Feb 8.3 18:18:59 10° WSW 18:22:12 29° SSW 18:25:31 10° SE visible
21 Feb 9.3 19:58:07 10° WSW 19:59:50 13° SSW 20:01:36 10° S visible
22 Feb 9.3 19:32:16 10° WSW 19:34:03 13° SSW 19:35:51 10° S visible
23 Feb 9.3 19:06:23 10° WSW 19:08:13 13° SSW 19:10:04 10° S visible
24 Feb 9.4 18:40:29 10° WSW 18:42:21 13° SSW 18:44:15 10° S visible
